QPF
0.12 0.07 0.05 0.10 0.11 0.04 0.02 0.01 0.00 0.01 0.01 0.02 0.02 0.02 0.02 0.01 0.01 0.00 0.00 0.01 0.02 0.03 0.01 0.03 0.04 0.03 0.02 0.01 0.01 0.01 0.02 0.04 0.02 0.01 0.01 0.01 0.01 0.03 0.04 0.04 0.03 0.03 0.03 0.02 0.02 0.02 0.01 0.01 0.01
0.05 0.07 0.09 0.12 0.06 0.02 0.01 0.01 0.01 0.00 0.02 0.02 0.02 0.02 0.01 0.01 0.01 0.00 0.01 0.02 0.02 0.01 0.01 0.01 0.02 0.01 0.01 0.00 0.01 0.01 0.01 0.01 0.01 0.01 0.01 0.01 0.01 0.02 0.02 0.02 0.03 0.03 0.02 0.03 0.02 0.02 0.01 0.01 0.01
0.05 0.11 0.12 0.07 0.03 0.01 0.01 0.01 0.01 0.01 0.03 0.04 0.03 0.02 0.01 0.00 0.00 0.00 0.01 0.01 0.01 0.00 0.00 0.01 0.01 0.01 0.01 0.00 0.00 0.00 0.00 0.00 0.00 0.01 0.01 0.01 0.01 0.01 0.01 0.01 0.02 0.02 0.02 0.02 0.01 0.01 0.02 0.02 0.02
0.09 0.14 0.11 0.06 0.02 0.01 0.01 0.01 0.01 0.02 0.03 0.05 0.03 0.01 0.01 0.00 0.00 0.00 0.01 0.00 0.00 0.00 0.00 0.00 0.01 0.01 0.01 0.01 0.00 0.00 0.00 0.00 0.00 0.00 0.01 0.01 0.02 0.01 0.01 0.01 0.01 0.01 0.01 0.02 0.02 0.02 0.02 0.03 0.03
0.16 0.11 0.06 0.05 0.02 0.02 0.02 0.02 0.02 0.04 0.06 0.07 0.04 0.01 0.01 0.00 0.00 0.00 0.00 0.00 0.00 0.00 0.00 0.00 0.01 0.01 0.01 0.01 0.01 0.01 0.01 0.00 0.00 0.00 0.01 0.01 0.02 0.01 0.01 0.01 0.00 0.01 0.01 0.02 0.03 0.03 0.02 0.02 0.02
0.12 0.07 0.05 0.04 0.02 0.02 0.02 0.02 0.02 0.04 0.05 0.07 0.04 0.01 0.01 0.00 0.00 0.00 0.00 0.00 0.00 0.00 0.00 0.00 0.01 0.01 0.01 0.01 0.01 0.01 0.01 0.01 0.00 0.00 0.00 0.00 0.01 0.02 0.01 0.01 0.01 0.01 0.01 0.02 0.02 0.02 0.03 0.02 0.01
0.12 0.07 0.05 0.03 0.02 0.03 0.03 0.02 0.03 0.03 0.02 0.03 0.02 0.01 0.01 0.00 0.00 0.00 0.00 0.00 0.00 0.00 0.00 0.00 0.00 0.00 0.01 0.01 0.01 0.01 0.01 0.01 0.00 0.00 0.00 0.00 0.01 0.02 0.02 0.02 0.01 0.01 0.01 0.02 0.02 0.02 0.03 0.04 0.02
0.13 0.08 0.05 0.04 0.03 0.03 0.04 0.03 0.03 0.03 0.02 0.02 0.02 0.01 0.01 0.00 0.00 0.00 0.00 0.00 0.00 0.00 0.00 0.00 0.00 0.00 0.00 0.00 0.01 0.01 0.00 0.00 0.00 0.00 0.00 0.00 0.00 0.02 0.03 0.02 0.01 0.01 0.01 0.02 0.02 0.03 0.03 0.03 0.03
0.12 0.08 0.05 0.04 0.04 0.04 0.03 0.03 0.03 0.03 0.04 0.03 0.02 0.01 0.01 0.01 0.01 0.01 0.00 0.00 0.00 0.00 0.00 0.00 0.00 0.00 0.00 0.00 0.01 0.00 0.00 0.00 0.01 0.01 0.00 0.00 0.00 0.01 0.01 0.01 0.01 0.01 0.01 0.01 0.02 0.02 0.02 0.02 0.03
0.10 0.07 0.06 0.04 0.04 0.04 0.02 0.03 0.05 0.06 0.04 0.03 0.02 0.01 0.00 0.00 0.01 0.00 0.00 0.00 0.00 0.00 0.00 0.00 0.00 0.00 0.00 0.00 0.00 0.00 0.00 0.00 0.00 0.00 0.00 0.00 0.00 0.00 0.01 0.01 0.01 0.01 0.01 0.01 0.01 0.01 0.01 0.01 0.01
0.08 0.09 0.06 0.05 0.05 0.04 0.04 0.06 0.07 0.07 0.05 0.02 0.02 0.01 0.00 0.00 0.00 0.00 0.00 0.00 0.00 0.00 0.00 0.00 0.00 0.00 0.00 0.00 0.00 0.00 0.00 0.00 0.00 0.00 0.00 0.00 0.00 0.00 0.00 0.00 0.01 0.01 0.01 0.00 0.00 0.00 0.00 0.00 0.01
0.11 0.10 0.08 0.07 0.07 0.07 0.06 0.06 0.05 0.06 0.05 0.03 0.01 0.01 0.01 0.00 0.00 0.00 0.00 0.00 0.00 0.00 0.00 0.00 0.00 0.00 0.00 0.00 0.00 0.00 0.00 0.00 0.00 0.00 0.00 0.00 0.00 0.00 0.00 0.00 0.00 0.00 0.00 0.00 0.00 0.00 0.00 0.00 0.00
0.11 0.08 0.06 0.05 0.07 0.08 0.06 0.05 0.05 0.08 0.05 0.03 0.02 0.02 0.01 0.01 0.00 0.00 0.00 0.00 0.00 0.00 0.00 0.00 0.00 0.00 0.01 0.01 0.00 0.00 0.00 0.00 0.00 0.00 0.00 0.00 0.00 0.00 0.00 0.00 0.00 0.00 0.00 0.00 0.00 0.00 0.00 0.00 0.00
0.08 0.06 0.05 0.05 0.07 0.09 0.09 0.06 0.05 0.06 0.05 0.04 0.03 0.03 0.03 0.02 0.01 0.00 0.00 0.01 0.00 0.01 0.00 0.00 0.00 0.01 0.02 0.02 0.01 0.01 0.00 0.00 0.00 0.00 0.00 0.00 0.00 0.00 0.00 0.00 0.00 0.00 0.00 0.00 0.00 0.00 0.00 0.00 0.00
0.05 0.05 0.03 0.04 0.05 0.06 0.07 0.08 0.05 0.04 0.03 0.03 0.03 0.03 0.03 0.01 0.01 0.00 0.00 0.00 0.01 0.01 0.01 0.01 0.01 0.04 0.04 0.02 0.01 0.01 0.01 0.00 0.00 0.00 0.00 0.00 0.00 0.00 0.00 0.00 0.00 0.00 0.00 0.00 0.00 0.00 0.00 0.01 0.00
0.03 0.04 0.04 0.04 0.03 0.04 0.05 0.06 0.04 0.03 0.02 0.03 0.03 0.02 0.02 0.01 0.01 0.00 0.00 0.00 0.01 0.02 0.02 0.02 0.02 0.04 0.02 0.01 0.01 0.01 0.01 0.01 0.00 0.00 0.00 0.00 0.00 0.00 0.00 0.00 0.00 0.00 0.00 0.00 0.00 0.00 0.01 0.01 0.01
0.02 0.03 0.04 0.03 0.02 0.03 0.04 0.06 0.04 0.03 0.02 0.02 0.02 0.02 0.02 0.02 0.01 0.01 0.00 0.01 0.01 0.02 0.02 0.04 0.04 0.02 0.01 0.01 0.01 0.01 0.01 0.00 0.00 0.00 0.00 0.00 0.00 0.00 0.00 0.00 0.00 0.00 0.00 0.00 0.00 0.00 0.00 0.01 0.02
0.01 0.02 0.03 0.02 0.02 0.03 0.03 0.03 0.03 0.02 0.02 0.01 0.01 0.01 0.01 0.01 0.01 0.01 0.01 0.01 0.01 0.02 0.02 0.03 0.03 0.02 0.00 0.01 0.01 0.01 0.01 0.00 0.00 0.00 0.00 0.00 0.00 0.00 0.00 0.00 0.00 0.00 0.00 0.00 0.00 0.00 0.01 0.01 0.02
0.01 0.01 0.01 0.01 0.01 0.02 0.02 0.02 0.01 0.01 0.01 0.01 0.01 0.01 0.01 0.00 0.01 0.00 0.01 0.01 0.01 0.01 0.01 0.01 0.01 0.01 0.01 0.01 0.01 0.00 0.00 0.00 0.00 0.00 0.00 0.00 0.00 0.00 0.00 0.00 0.00 0.00 0.00 0.01 0.00 0.01 0.01 0.01 0.01
0.01 0.01 0.01 0.01 0.01 0.01 0.02 0.02 0.01 0.01 0.01 0.01 0.01 0.01 0.01 0.00 0.00 0.00 0.01 0.00 0.00 0.00 0.00 0.00 0.01 0.01 0.01 0.01 0.00 0.00 0.00 0.00 0.00 0.00 0.00 0.00 0.00 0.00 0.00 0.00 0.00 0.00 0.00 0.00 0.01 0.01 0.01 0.01 0.02
0.01 0.01 0.01 0.01 0.01 0.01 0.02 0.01 0.01 0.01 0.01 0.01 0.01 0.01 0.01 0.01 0.01 0.01 0.00 0.01 0.01 0.00 0.00 0.01 0.02 0.02 0.01 0.01 0.00 0.00 0.00 0.00 0.00 0.00 0.00 0.00 0.00 0.00 0.00 0.00 0.00 0.00 0.00 0.00 0.01 0.01 0.01 0.01 0.02
0.01 0.01 0.01 0.01 0.01 0.01 0.01 0.01 0.00 0.00 0.00 0.01 0.01 0.01 0.01 0.01 0.01 0.00 0.00 0.01 0.00 0.00 0.01 0.01 0.02 0.01 0.01 0.01 0.00 0.00 0.00 0.00 0.00 0.00 0.00 0.00 0.00 0.00 0.00 0.00 0.00 0.00 0.00 0.00 0.00 0.01 0.01 0.01 0.02
0.01 0.01 0.01 0.01 0.01 0.01 0.01 0.00 0.00 0.00 0.00 0.00 0.01 0.01 0.01 0.01 0.00 0.00 0.00 0.00 0.01 0.01 0.03 0.03 0.02 0.01 0.01 0.00 0.00 0.00 0.00 0.00 0.00 0.00 0.00 0.00 0.00 0.00 0.00 0.00 0.01 0.00 0.00 0.00 0.00 0.00 0.01 0.01 0.02
0.01 0.01 0.01 0.01 0.00 0.00 0.00 0.00 0.00 0.00 0.00 0.00 0.01 0.01 0.01 0.00 0.00 0.00 0.00 0.00 0.01 0.01 0.01 0.02 0.01 0.00 0.00 0.00 0.00 0.00 0.00 0.00 0.00 0.00 0.00 0.00 0.00 0.00 0.00 0.00 0.01 0.01 0.00 0.00 0.00 0.01 0.01 0.01 0.02
0.01 0.01 0.00 0.00 0.00 0.00 0.00 0.00 0.00 0.00 0.00 0.00 0.00 0.00 0.00 0.00 0.00 0.00 0.00 0.00 0.00 0.01 0.00 0.00 0.00 0.00 0.00 0.00 0.00 0.00 0.00 0.00 0.00 0.00 0.00 0.00 0.00 0.00 0.00 0.01 0.01 0.01 0.00 0.00 0.00 0.00 0.01 0.02 0.02
0.00 0.00 0.00 0.00 0.00 0.00 0.00 0.00 0.00 0.00 0.00 0.00 0.00 0.01 0.01 0.01 0.00 0.00 0.00 0.00 0.00 0.00 0.00 0.00 0.00 0.00 0.00 0.00 0.00 0.00 0.00 0.00 0.00 0.00 0.00 0.00 0.01 0.00 0.00 0.01 0.01 0.02 0.01 0.01 0.00 0.00 0.00 0.01 0.01
0.00 0.00 0.00 0.00 0.00 0.00 0.00 0.00 0.00 0.00 0.00 0.00 0.01 0.01 0.01 0.01 0.00 0.00 0.00 0.00 0.00 0.00 0.00 0.00 0.00 0.00 0.00 0.00 0.00 0.00 0.00 0.00 0.00 0.00 0.00 0.00 0.00 0.00 0.00 0.01 0.01 0.01 0.01 0.01 0.01 0.00 0.00 0.01 0.01
0.00 0.00 0.00 0.00 0.00 0.00 0.00 0.00 0.00 0.00 0.00 0.00 0.00 0.00 0.00 0.00 0.00 0.00 0.00 0.00 0.00 0.00 0.00 0.00 0.00 0.00 0.00 0.00 0.00 0.00 0.00 0.00 0.00 0.00 0.00 0.00 0.00 0.00 0.00 0.00 0.00 0.01 0.01 0.01 0.01 0.00 0.01 0.01 0.01
0.00 0.00 0.00 0.00 0.00 0.00 0.00 0.00 0.00 0.00 0.00 0.00 0.00 0.00 0.00 0.00 0.00 0.00 0.00 0.00 0.00 0.00 0.00 0.00 0.00 0.00 0.00 0.00 0.00 0.00 0.00 0.00 0.00 0.00 0.00 0.00 0.00 0.00 0.00 0.00 0.01 0.01 0.01 0.01 0.00 0.00 0.01 0.01 0.01
0.00 0.00 0.00 0.00 0.00 0.00 0.00 0.00 0.00 0.00 0.00 0.00 0.00 0.00 0.00 0.00 0.00 0.00 0.00 0.00 0.00 0.00 0.00 0.00 0.00 0.00 0.00 0.00 0.00 0.00 0.00 0.00 0.00 0.00 0.00 0.00 0.00 0.00 0.00 0.00 0.01 0.01 0.01 0.01 0.00 0.00 0.01 0.01 0.02
MSLP
1009.65 1010.48 1011.44 1012.42 1013.29 1013.97 1014.41 1014.59 1014.56 1014.40 1014.22 1014.08 1014.04 1014.12 1014.28 1014.46 1014.57 1014.56 1014.37 1014.02 1013.56 1013.04 1012.55 1012.17 1011.93 1011.84 1011.88 1012.00 1012.13 1012.24 1012.29 1012.28 1012.24 1012.18 1012.15 1012.17 1012.23 1012.33 1012.44 1012.53 1012.57 1012.57 1012.52 1012.44 1012.35 1012.27 1012.22 1012.17 1012.14
1010.05 1011.04 1012.10 1013.09 1013.91 1014.46 1014.73 1014.72 1014.52 1014.21 1013.92 1013.73 1013.67 1013.75 1013.93 1014.12 1014.24 1014.24 1014.07 1013.75 1013.33 1012.88 1012.47 1012.16 1011.99 1011.96 1012.04 1012.17 1012.31 1012.41 1012.47 1012.47 1012.44 1012.41 1012.40 1012.42 1012.48 1012.55 1012.61 1012.65 1012.65 1012.61 1012.54 1012.45 1012.36 1012.28 1012.22 1012.17 1012.12
1010.53 1011.62 1012.71 1013.68 1014.39 1014.80 1014.90 1014.72 1014.38 1013.98 1013.63 1013.41 1013.36 1013.45 1013.62 1013.81 1013.93 1013.92 1013.75 1013.46 1013.10 1012.72 1012.41 1012.20 1012.11 1012.14 1012.25 1012.39 1012.53 1012.62 1012.66 1012.66 1012.65 1012.63 1012.63 1012.65 1012.69 1012.73 1012.74 1012.73 1012.68 1012.60 1012.51 1012.41 1012.32 1012.26 1012.20 1012.16 1012.11
1011.08 1012.21 1013.28 1014.15 1014.74 1014.99 1014.93 1014.63 1014.20 1013.75 1013.40 1013.19 1013.16 1013.27 1013.44 1013.61 1013.70 1013.66 1013.50 1013.23 1012.93 1012.64 1012.42 1012.31 1012.31 1012.40 1012.54 1012.67 1012.78 1012.85 1012.86 1012.85 1012.83 1012.82 1012.83 1012.85 1012.87 1012.87 1012.84 1012.78 1012.68 1012.57 1012.45 1012.35 1012.28 1012.23 1012.20 1012.17 1012.14
1011.66 1012.78 1013.78 1014.52 1014.95 1015.05 1014.86 1014.48 1014.01 1013.57 1013.26 1013.11 1013.12 1013.25 1013.42 1013.56 1013.60 1013.53 1013.35 1013.10 1012.85 1012.65 1012.54 1012.52 1012.60 1012.74 1012.88 1012.99 1013.06 1013.08 1013.05 1013.01 1012.98 1012.97 1012.98 1013.00 1013.01 1012.99 1012.93 1012.82 1012.69 1012.55 1012.42 1012.33 1012.27 1012.25 1012.24 1012.23 1012.20
1012.26 1013.31 1014.18 1014.76 1015.03 1014.99 1014.71 1014.28 1013.82 1013.45 1013.22 1013.15 1013.23 1013.38 1013.54 1013.63 1013.63 1013.51 1013.31 1013.08 1012.88 1012.76 1012.74 1012.82 1012.96 1013.12 1013.26 1013.33 1013.34 1013.30 1013.22 1013.14 1013.10 1013.08 1013.10 1013.14 1013.15 1013.12 1013.04 1012.90 1012.74 1012.58 1012.45 1012.36 1012.31 1012.31 1012.32 1012.32 1012.30
1012.80 1013.74 1014.46 1014.87 1014.98 1014.82 1014.47 1014.04 1013.64 1013.36 1013.24 1013.27 1013.42 1013.60 1013.75 1013.80 1013.74 1013.58 1013.36 1013.15 1012.99 1012.94 1013.00 1013.15 1013.34 1013.52 1013.63 1013.66 1013.61 1013.50 1013.37 1013.26 1013.19 1013.19 1013.23 1013.27 1013.30 1013.27 1013.19 1013.04 1012.86 1012.69 1012.54 1012.45 1012.41 1012.41 1012.43 1012.44 1012.41
1013.24 1014.05 1014.60 1014.85 1014.81 1014.54 1014.16 1013.75 1013.43 1013.27 1013.27 1013.40 1013.62 1013.82 1013.96 1013.98 1013.87 1013.67 1013.44 1013.24 1013.14 1013.15 1013.27 1013.48 1013.70 1013.89 1013.98 1013.97 1013.86 1013.69 1013.51 1013.37 1013.30 1013.31 1013.37 1013.44 1013.49 1013.48 1013.39 1013.24 1013.05 1012.86 1012.70 1012.60 1012.55 1012.54 1012.55 1012.54 1012.50
1013.55 1014.23 1014.61 1014.70 1014.54 1014.20 1013.80 1013.44 1013.20 1013.14 1013.25 1013.47 1013.74 1013.98 1014.10 1014.10 1013.96 1013.74 1013.50 1013.32 1013.26 1013.32 1013.50 1013.75 1014.01 1014.19 1014.26 1014.22 1014.07 1013.86 1013.66 1013.51 1013.44 1013.47 1013.55 1013.65 1013.72 1013.72 1013.64 1013.49 1013.29 1013.08 1012.90 1012.77 1012.70 1012.66 1012.64 1012.61 1012.54
1013.73 1014.28 1014.52 1014.47 1014.21 1013.82 1013.42 1013.11 1012.95 1012.98 1013.16 1013.45 1013.76 1014.00 1014.12 1014.10 1013.94 1013.71 1013.49 1013.34 1013.32 1013.43 1013.66 1013.94 1014.22 1014.41 1014.47 1014.41 1014.24 1014.03 1013.82 1013.67 1013.62 1013.66 1013.77 1013.89 1013.98 1014.00 1013.93 1013.77 1013.55 1013.32 1013.12 1012.95 1012.84 1012.77 1012.71 1012.64 1012.53
1013.81 1014.23 1014.35 1014.21 1013.88 1013.47 1013.08 1012.80 1012.70 1012.78 1013.02 1013.34 1013.66 1013.90 1014.01 1013.97 1013.82 1013.60 1013.41 1013.29 1013.31 1013.46 1013.73 1014.04 1014.33 1014.53 1014.60 1014.55 1014.39 1014.19 1014.00 1013.87 1013.84 1013.90 1014.02 1014.16 1014.26 1014.28 1014.21 1014.05 1013.82 1013.58 1013.34 1013.14 1012.99 1012.87 1012.76 1012.65 1012.50
1013.82 1014.14 1014.18 1013.97 1013.61 1013.20 1012.83 1012.58 1012.51 1012.62 1012.86 1013.16 1013.46 1013.68 1013.78 1013.74 1013.60 1013.41 1013.26 1013.18 1013.24 1013.43 1013.71 1014.04 1014.35 1014.57 1014.67 1014.64 1014.52 1014.35 1014.19 1014.10 1014.08 1014.15 1014.28 1014.42 1014.52 1014.54 1014.47 1014.31 1014.08 1013.82 1013.56 1013.33 1013.13 1012.97 1012.82 1012.66 1012.48
1013.83 1014.07 1014.05 1013.81 1013.46 1013.06 1012.72 1012.50 1012.43 1012.52 1012.72 1012.98 1013.23 1013.41 1013.49 1013.46 1013.34 1013.19 1013.07 1013.05 1013.13 1013.34 1013.64 1013.98 1014.30 1014.54 1014.68 1014.70 1014.64 1014.52 1014.40 1014.33 1014.33 1014.40 1014.52 1014.64 1014.73 1014.75 1014.68 1014.52 1014.30 1014.04 1013.77 1013.52 1013.29 1013.09 1012.90 1012.70 1012.49
1013.88 1014.06 1014.00 1013.78 1013.45 1013.10 1012.79 1012.58 1012.50 1012.54 1012.67 1012.85 1013.02 1013.15 1013.20 1013.17 1013.08 1012.97 1012.90 1012.91 1013.02 1013.24 1013.54 1013.88 1014.21 1014.49 1014.67 1014.75 1014.74 1014.69 1014.62 1014.58 1014.58 1014.63 1014.72 1014.81 1014.88 1014.89 1014.83 1014.69 1014.48 1014.24 1013.98 1013.72 1013.48 1013.25 1013.03 1012.80 1012.57
1013.98 1014.11 1014.06 1013.86 1013.60 1013.30 1013.04 1012.83 1012.71 1012.68 1012.71 1012.79 1012.87 1012.93 1012.95 1012.92 1012.86 1012.80 1012.77 1012.81 1012.93 1013.15 1013.44 1013.78 1014.12 1014.42 1014.65 1014.79 1014.86 1014.87 1014.84 1014.81 1014.81 1014.83 1014.88 1014.93 1014.97 1014.96 1014.91 1014.80 1014.63 1014.42 1014.19 1013.94 1013.70 1013.46 1013.21 1012.97 1012.72
1014.12 1014.22 1014.18 1014.06 1013.86 1013.64 1013.42 1013.21 1013.05 1012.92 1012.84 1012.80 1012.78 1012.76 1012.74 1012.72 1012.69 1012.67 1012.68 1012.74 1012.88 1013.09 1013.36 1013.69 1014.04 1014.36 1014.64 1014.85 1014.99 1015.05 1015.06 1015.04 1015.02 1014.99 1014.99 1014.99 1014.99 1014.98 1014.94 1014.86 1014.74 1014.58 1014.39 1014.17 1013.94 1013.70 1013.44 1013.19 1012.93
1014.26 1014.34 1014.35 1014.30 1014.21 1014.07 1013.89 1013.68 1013.45 1013.22 1013.01 1012.84 1012.71 1012.62 1012.57 1012.55 1012.55 1012.57 1012.62 1012.71 1012.85 1013.05 1013.31 1013.63 1013.98 1014.33 1014.65 1014.92 1015.12 1015.24 1015.28 1015.26 1015.20 1015.13 1015.07 1015.02 1014.98 1014.96 1014.93 1014.89 1014.82 1014.72 1014.58 1014.39 1014.18 1013.94 1013.69 1013.44 1013.18
1014.34 1014.44 1014.52 1014.57 1014.58 1014.52 1014.38 1014.16 1013.86 1013.52 1013.18 1012.87 1012.63 1012.47 1012.39 1012.38 1012.42 1012.49 1012.59 1012.70 1012.85 1013.04 1013.29 1013.59 1013.94 1014.31 1014.68 1015.00 1015.26 1015.42 1015.48 1015.46 1015.38 1015.26 1015.13 1015.02 1014.95 1014.92 1014.90 1014.90 1014.88 1014.83 1014.73 1014.58 1014.39 1014.17 1013.93 1013.68 1013.44
1014.35 1014.49 1014.66 1014.83 1014.96 1014.98 1014.88 1014.63 1014.25 1013.79 1013.30 1012.86 1012.51 1012.28 1012.18 1012.18 1012.27 1012.40 1012.54 1012.70 1012.86 1013.05 1013.28 1013.57 1013.92 1014.30 1014.70 1015.07 1015.38 1015.58 1015.66 1015.64 1015.53 1015.36 1015.19 1015.03 1014.93 1014.88 1014.87 1014.90 1014.92 1014.91 1014.85 1014.73 1014.56 1014.35 1014.12 1013.89 1013.67
1014.28 1014.51 1014.80 1015.10 1015.34 1015.45 1015.36 1015.07 1014.60 1014.01 1013.38 1012.80 1012.34 1012.05 1011.93 1011.96 1012.09 1012.28 1012.49 1012.69 1012.87 1013.06 1013.28 1013.56 1013.90 1014.29 1014.71 1015.12 1015.46 1015.69 1015.80 1015.78 1015.65 1015.46 1015.24 1015.05 1014.92 1014.86 1014.85 1014.89 1014.94 1014.95 1014.92 1014.82 1014.66 1014.47 1014.25 1014.05 1013.86
1014.17 1014.52 1014.96 1015.41 1015.77 1015.94 1015.86 1015.51 1014.94 1014.20 1013.42 1012.71 1012.15 1011.80 1011.66 1011.71 1011.90 1012.16 1012.42 1012.67 1012.88 1013.08 1013.29 1013.55 1013.87 1014.26 1014.69 1015.11 1015.48 1015.74 1015.87 1015.86 1015.73 1015.52 1015.29 1015.08 1014.93 1014.86 1014.85 1014.90 1014.95 1014.97 1014.94 1014.85 1014.70 1014.51 1014.31 1014.13 1013.99
1014.09 1014.60 1015.21 1015.81 1016.28 1016.50 1016.41 1016.00 1015.30 1014.42 1013.49 1012.64 1011.98 1011.56 1011.41 1011.49 1011.72 1012.04 1012.37 1012.66 1012.90 1013.10 1013.30 1013.53 1013.83 1014.20 1014.62 1015.04 1015.42 1015.70 1015.86 1015.87 1015.75 1015.55 1015.32 1015.11 1014.95 1014.87 1014.86 1014.90 1014.95 1014.97 1014.93 1014.83 1014.68 1014.49 1014.30 1014.15 1014.05
1014.12 1014.81 1015.59 1016.34 1016.90 1017.16 1017.05 1016.55 1015.73 1014.71 1013.63 1012.65 1011.88 1011.41 1011.23 1011.32 1011.59 1011.96 1012.34 1012.66 1012.92 1013.12 1013.30 1013.50 1013.76 1014.10 1014.49 1014.90 1015.28 1015.58 1015.75 1015.79 1015.71 1015.54 1015.33 1015.13 1014.98 1014.90 1014.89 1014.91 1014.95 1014.95 1014.90 1014.78 1014.62 1014.42 1014.25 1014.11 1014.05
1014.28 1015.15 1016.10 1016.98 1017.62 1017.90 1017.75 1017.17 1016.23 1015.07 1013.85 1012.75 1011.89 1011.35 1011.15 1011.23 1011.53 1011.93 1012.34 1012.68 1012.95 1013.14 1013.29 1013.45 1013.67 1013.95 1014.31 1014.69 1015.06 1015.37 1015.57 1015.65 1015.60 1015.47 1015.30 1015.13 1015.00 1014.93 1014.91 1014.93 1014.94 1014.92 1014.85 1014.71 1014.53 1014.34 1014.16 1014.04 1013.99
1014.60 1015.63 1016.71 1017.69 1018.38 1018.66 1018.47 1017.81 1016.76 1015.48 1014.15 1012.94 1012.00 1011.40 1011.16 1011.23 1011.53 1011.93 1012.35 1012.70 1012.96 1013.14 1013.25 1013.37 1013.54 1013.78 1014.08 1014.44 1014.79 1015.11 1015.33 1015.44 1015.44 1015.36 1015.23 1015.10 1014.99 1014.94 1014.92 1014.93 1014.93 1014.89 1014.80 1014.64 1014.45 1014.25 1014.07 1013.95 1013.91
1015.01 1016.16 1017.34 1018.37 1019.08 1019.35 1019.10 1018.37 1017.24 1015.87 1014.46 1013.18 1012.17 1011.52 1011.24 1011.29 1011.56 1011.95 1012.36 1012.70 1012.94 1013.08 1013.17 1013.25 1013.37 1013.56 1013.83 1014.15 1014.50 1014.81 1015.05 1015.19 1015.24 1015.21 1015.13 1015.03 1014.96 1014.91 1014.90 1014.90 1014.90 1014.85 1014.74 1014.58 1014.39 1014.18 1013.99 1013.87 1013.82
1015.45 1016.66 1017.87 1018.90 1019.60 1019.82 1019.53 1018.75 1017.57 1016.16 1014.71 1013.39 1012.35 1011.66 1011.34 1011.35 1011.59 1011.94 1012.32 1012.63 1012.84 1012.96 1013.02 1013.07 1013.16 1013.32 1013.56 1013.86 1014.19 1014.50 1014.76 1014.94 1015.02 1015.03 1014.99 1014.93 1014.88 1014.86 1014.85 1014.86 1014.84 1014.80 1014.69 1014.54 1014.34 1014.14 1013.95 1013.82 1013.75
1015.82 1017.02 1018.19 1019.18 1019.82 1019.99 1019.66 1018.85 1017.66 1016.25 1014.81 1013.50 1012.46 1011.76 1011.41 1011.38 1011.57 1011.88 1012.20 1012.47 1012.66 1012.75 1012.80 1012.83 1012.91 1013.05 1013.28 1013.57 1013.90 1014.22 1014.49 1014.69 1014.80 1014.84 1014.83 1014.80 1014.77 1014.76 1014.76 1014.77 1014.77 1014.73 1014.64 1014.50 1014.33 1014.13 1013.95 1013.80 1013.72
1016.06 1017.17 1018.25 1019.14 1019.68 1019.78 1019.41 1018.60 1017.45 1016.09 1014.71 1013.46 1012.46 1011.77 1011.41 1011.34 1011.48 1011.73 1012.00 1012.22 1012.37 1012.45 1012.49 1012.52 1012.60 1012.75 1012.98 1013.28 1013.61 1013.94 1014.22 1014.44 1014.57 1014.64 1014.65 1014.64 1014.62 1014.62 1014.63 1014.65 1014.66 1014.64 1014.58 1014.48 1014.33 1014.16 1013.99 1013.84 1013.73
1016.16 1017.13 1018.05 1018.79 1019.21 1019.23 1018.84 1018.05 1016.96 1015.70 1014.42 1013.27 1012.35 1011.71 1011.35 1011.26 1011.34 1011.52 1011.73 1011.90 1012.02 1012.08 1012.11 1012.16 1012.26 1012.42 1012.67 1012.98 1013.32 1013.66 1013.95 1014.18 1014.33 1014.41 1014.44 1014.44 1014.44 1014.44 1014.46 1014.50 1014.52 1014.53 1014.51 1014.44 1014.33 1014.19 1014.04 1013.90 1013.78
Thickness
5781 5779 5775 5763 5743 5728 5727 5739 5746 5749 5752 5760 5764 5761 5755 5750 5745 5742 5762 5770 5769 5767 5765 5763 5762 5760 5758 5757 5756 5755 5753 5752 5751 5750 5749 5748 5748 5748 5748 5748 5748 5748 5748 5749 5749 5750 5751 5752 5754
5780 5776 5765 5749 5730 5717 5725 5742 5745 5751 5759 5763 5763 5760 5754 5753 5759 5759 5763 5767 5768 5766 5763 5761 5760 5758 5756 5755 5753 5752 5751 5750 5748 5747 5746 5745 5744 5744 5744 5744 5744 5744 5745 5745 5746 5747 5748 5749 5750
5777 5772 5753 5737 5726 5720 5731 5747 5749 5758 5765 5763 5758 5759 5755 5754 5760 5762 5766 5768 5766 5764 5762 5760 5758 5756 5754 5752 5751 5749 5748 5747 5746 5745 5744 5743 5742 5741 5741 5741 5741 5741 5741 5741 5742 5743 5744 5745 5746
5769 5757 5746 5732 5728 5735 5741 5750 5754 5756 5762 5764 5758 5751 5757 5765 5765 5767 5769 5767 5764 5762 5760 5758 5756 5754 5752 5750 5749 5747 5746 5744 5743 5742 5741 5740 5740 5739 5738 5738 5737 5737 5738 5738 5738 5739 5740 5741 5743
5761 5745 5732 5724 5729 5742 5749 5754 5756 5753 5755 5758 5755 5747 5751 5764 5770 5769 5768 5766 5762 5760 5758 5756 5755 5753 5751 5749 5747 5746 5744 5743 5741 5740 5739 5738 5737 5736 5735 5735 5734 5734 5734 5734 5735 5735 5736 5738 5739
5745 5736 5720 5716 5728 5741 5750 5756 5755 5753 5753 5756 5753 5747 5750 5763 5765 5766 5766 5764 5762 5759 5757 5755 5753 5751 5749 5747 5746 5744 5742 5741 5739 5738 5736 5735 5734 5733 5733 5732 5731 5731 5731 5731 5731 5732 5733 5734 5736
5738 5727 5719 5722 5725 5735 5748 5755 5751 5749 5750 5754 5756 5745 5750 5758 5764 5765 5764 5762 5759 5757 5755 5753 5752 5750 5748 5746 5744 5743 5741 5739 5737 5735 5734 5732 5731 5730 5730 5729 5728 5728 5728 5728 5728 5729 5730 5731 5732
5741 5728 5720 5720 5723 5731 5747 5753 5755 5752 5752 5762 5760 5746 5746 5758 5763 5762 5759 5757 5756 5754 5752 5751 5749 5747 5746 5744 5742 5741 5739 5737 5735 5733 5732 5730 5729 5727 5727 5726 5725 5725 5726 5725 5725 5725 5726 5727 5728
5741 5720 5713 5720 5724 5733 5746 5747 5754 5760 5756 5758 5760 5759 5762 5764 5761 5756 5752 5751 5750 5751 5750 5749 5747 5745 5743 5742 5740 5738 5737 5735 5733 5731 5729 5727 5726 5724 5723 5723 5722 5722 5722 5722 5722 5722 5723 5723 5724
5729 5713 5720 5731 5734 5736 5742 5745 5749 5750 5748 5750 5754 5759 5763 5761 5757 5752 5748 5746 5747 5747 5748 5748 5746 5744 5741 5740 5738 5736 5734 5732 5730 5728 5726 5724 5722 5721 5720 5719 5719 5718 5718 5718 5718 5718 5718 5719 5720
5727 5720 5727 5734 5739 5740 5741 5744 5750 5744 5740 5747 5750 5754 5757 5755 5753 5750 5749 5749 5748 5748 5748 5747 5745 5743 5740 5738 5736 5733 5731 5729 5727 5725 5723 5721 5719 5718 5716 5715 5714 5714 5713 5713 5713 5713 5714 5714 5715
5723 5726 5730 5733 5740 5739 5739 5742 5743 5744 5748 5758 5760 5759 5756 5753 5751 5750 5749 5749 5749 5747 5746 5746 5744 5741 5739 5736 5734 5731 5728 5726 5724 5722 5720 5718 5716 5714 5712 5710 5710 5709 5708 5708 5708 5708 5709 5710 5711
5719 5723 5731 5734 5736 5737 5739 5739 5741 5746 5756 5760 5760 5757 5754 5753 5752 5752 5752 5750 5748 5746 5745 5744 5742 5740 5737 5734 5731 5729 5726 5724 5721 5719 5717 5715 5712 5710 5708 5707 5706 5705 5704 5703 5703 5703 5704 5705 5706
5721 5723 5725 5728 5732 5736 5734 5736 5739 5746 5754 5754 5754 5752 5752 5752 5751 5749 5748 5747 5746 5745 5743 5742 5740 5738 5735 5731 5728 5726 5724 5721 5718 5716 5714 5712 5709 5707 5705 5703 5702 5701 5700 5699 5699 5698 5699 5700 5701
5722 5716 5718 5723 5728 5731 5732 5727 5735 5746 5750 5747 5749 5750 5750 5750 5750 5749 5749 5748 5746 5744 5742 5740 5739 5736 5733 5729 5727 5724 5722 5719 5716 5714 5711 5709 5706 5704 5701 5699 5697 5696 5696 5695 5694 5694 5694 5695 5697
5713 5706 5702 5716 5724 5728 5723 5714 5736 5745 5744 5741 5743 5745 5746 5748 5748 5750 5750 5748 5746 5743 5741 5739 5738 5733 5730 5727 5725 5722 5719 5716 5714 5711 5708 5706 5703 5701 5698 5695 5693 5692 5691 5690 5689 5689 5688 5689 5690
5696 5691 5696 5708 5721 5723 5719 5716 5734 5741 5741 5739 5740 5741 5742 5743 5746 5748 5749 5748 5745 5743 5739 5736 5734 5731 5728 5725 5722 5719 5716 5714 5711 5708 5706 5703 5700 5698 5695 5692 5690 5688 5687 5686 5685 5684 5683 5683 5685
5686 5689 5694 5700 5715 5718 5714 5717 5729 5737 5738 5737 5738 5738 5738 5740 5744 5747 5747 5746 5744 5741 5738 5734 5731 5728 5725 5722 5718 5716 5713 5711 5708 5706 5703 5700 5697 5695 5692 5689 5687 5684 5682 5681 5679 5678 5678 5678 5679
5697 5694 5693 5703 5717 5714 5712 5715 5725 5733 5733 5734 5735 5736 5736 5739 5743 5744 5744 5742 5740 5737 5734 5731 5728 5725 5722 5718 5714 5711 5709 5707 5705 5703 5701 5698 5695 5692 5689 5686 5683 5681 5678 5676 5675 5674 5673 5672 5673
5696 5692 5694 5705 5717 5715 5711 5715 5725 5731 5732 5735 5736 5735 5736 5737 5738 5739 5739 5738 5737 5734 5732 5729 5726 5724 5721 5718 5714 5711 5708 5705 5703 5701 5698 5696 5692 5690 5687 5683 5680 5678 5675 5673 5671 5669 5667 5667 5667
5695 5694 5698 5701 5710 5713 5710 5710 5719 5729 5733 5736 5738 5738 5738 5738 5736 5736 5736 5735 5733 5732 5730 5729 5725 5723 5720 5717 5713 5709 5706 5703 5699 5697 5695 5693 5691 5688 5685 5682 5678 5675 5672 5669 5667 5665 5663 5661 5661
5691 5706 5707 5705 5697 5690 5699 5687 5709 5719 5725 5731 5734 5735 5736 5738 5737 5736 5735 5733 5732 5732 5730 5727 5724 5721 5718 5715 5712 5708 5703 5698 5697 5694 5692 5691 5689 5686 5683 5680 5677 5673 5670 5667 5665 5663 5660 5658 5656
5702 5711 5708 5703 5696 5689 5692 5687 5698 5714 5719 5727 5732 5735 5736 5737 5736 5735 5734 5734 5733 5731 5728 5725 5722 5719 5717 5714 5711 5707 5702 5699 5696 5693 5691 5689 5687 5684 5682 5679 5675 5672 5669 5666 5663 5661 5658 5656 5655
5711 5705 5698 5690 5685 5677 5687 5685 5691 5705 5718 5727 5733 5735 5737 5737 5736 5735 5734 5732 5730 5728 5725 5723 5719 5717 5715 5712 5709 5705 5702 5698 5694 5692 5689 5687 5684 5682 5680 5678 5674 5671 5668 5665 5662 5660 5657 5655 5653
5705 5688 5672 5671 5665 5672 5688 5687 5693 5717 5726 5730 5733 5735 5736 5735 5733 5732 5730 5729 5727 5726 5724 5721 5718 5715 5713 5711 5708 5705 5702 5698 5694 5691 5687 5684 5682 5680 5678 5676 5673 5670 5667 5664 5661 5658 5656 5654 5652
5698 5692 5672 5664 5663 5669 5684 5685 5704 5725 5731 5735 5736 5736 5735 5732 5731 5730 5729 5728 5727 5725 5723 5720 5717 5715 5712 5710 5707 5704 5701 5697 5694 5691 5687 5684 5681 5679 5678 5675 5672 5670 5667 5664 5661 5658 5655 5653 5652
5697 5688 5690 5674 5672 5668 5678 5692 5712 5729 5730 5732 5732 5732 5731 5731 5730 5729 5728 5727 5726 5724 5722 5720 5717 5715 5712 5709 5706 5703 5700 5697 5694 5691 5688 5684 5682 5680 5677 5674 5672 5669 5666 5663 5660 5657 5655 5652 5651
5707 5693 5681 5674 5664 5661 5675 5683 5692 5716 5723 5727 5728 5728 5730 5730 5729 5728 5727 5726 5725 5724 5722 5720 5717 5714 5712 5709 5706 5703 5700 5697 5694 5690 5687 5684 5682 5679 5676 5673 5671 5668 5665 5663 5659 5657 5654 5652 5650
5700 5693 5681 5671 5672 5662 5665 5678 5710 5715 5721 5723 5725 5727 5728 5729 5728 5727 5726 5726 5724 5722 5719 5717 5715 5712 5710 5707 5705 5702 5699 5696 5693 5689 5687 5684 5681 5678 5675 5672 5670 5667 5664 5662 5659 5656 5653 5651 5649
5709 5700 5687 5678 5671 5668 5665 5679 5720 5719 5722 5724 5726 5728 5729 5729 5728 5726 5725 5723 5721 5719 5718 5715 5713 5711 5709 5707 5703 5701 5698 5695 5691 5689 5686 5683 5680 5677 5675 5672 5669 5666 5664 5661 5658 5655 5652 5650 5647